Regional Weather Roundup
Issued by NWS Newport/Morehead, NC

Home | Current Version | Previous Version | Text Only | Print | Product List | Glossary On
Versions: 1 2 3 4 5 6 7 8 9 10 11 12 13 14 15 16 17 18 19 20 21 22 23 24 25 26 27 28 29 30 31 32 33 34 35 36 37 38 39 40 41 42 43 44 45 46 47 48 49 50
000
ASUS42 KMHX 292022
RWRMHX
WEATHER ROUNDUP FOR EASTERN NORTH CAROLINA
NATIONAL WEATHER SERVICE NEWPORT/MOREHEAD CITY NC
300 PM EST THU JAN 29 2015

NOTE: "FAIR" INDICATES FEW OR NO CLOUDS BELOW 12,000 FEET
WITH NO SIGNIFICANT WEATHER AND/OR OBSTRUCTIONS TO VISIBILITY

NCZ015>017-031-032-045>047-102-103-292100-
NORTH COAST

CITY           SKY/WX    TMP DP  RH WIND       PRES   REMARKS
EDENTON        CLOUDY    42  21  44 SW5       30.23F
ELIZABETH CITY PTSUNNY   40  18  41 SW6       30.23F
KITTY HAWK     CLOUDY    39  24  53 SW3       30.22S
MANTEO         CLOUDY    37  25  60 W5        30.24S

$$

NCZ045>047-081-094-103-104-292100-
CENTRAL COAST

CITY           SKY/WX    TMP DP  RH WIND       PRES   REMARKS
FRISCO         CLOUDY    38  26  62 W6        30.25S
SWANQUARTER    NOT AVBL

$$

NCZ095-097-098-100-101-292100-
SOUTHERN COAST

CITY           SKY/WX    TMP DP  RH WIND       PRES   REMARKS
BEAUFORT       MOSUNNY   43  26  51 S8        30.25F
CEDAR ISLAND   NOT AVBL
JACKSONVILLE   PTSUNNY   47  21  35 S9        30.24F
PINEY ISLAND     N/A    N/A N/A N/A MISG      30.24F
WILMINGTON     PTSUNNY   48  25  40 SE9       30.24F


$$

NCZ011>013-027>030-043-044-078>080-089-090>093-098-292100-
COASTAL PLAIN

CITY           SKY/WX    TMP DP  RH WIND       PRES   REMARKS
AHOSKIE        PTSUNNY   42  15  34 S8        30.21F
CLINTON        CLOUDY    49  19  30 SW6       30.23F
ELIZABETHTOWN  CLOUDY    52  15  22 SW9       30.23S
GOLDSBORO      CLOUDY    48  18  30 S9        30.20F
GREENVILLE     PTSUNNY   46  18  31 SW7       30.23F
HAVELOCK       PTSUNNY   49  12  22 W5        30.25F
KENANSVILLE    CLOUDY    48  13  24 S3        30.24F
KINSTON        CLOUDY    48  14  25 SW5       30.24F
NEW BERN       CLOUDY    49  16  26 CALM      30.25F
RICHLANDS      PTSUNNY   48  16  27 SW6       30.23F
ROCKY MOUNT    CLOUDY    46  16  30 SW8       30.21F
WASHINGTON     PTSUNNY   44  15  31 S3        30.24F
WHITEVILLE     CLOUDY    52  15  23 SW7       30.23F

$$

AMZ130-135-150-152-154-156-158-170-250-252-270-ANZ085-086-088-633-658-670-292100-
MARINE OBSERVATIONS

STATION/POSITION TIME  TEMP    WIND        PRES    WAVE   SWELL
                       AIR SEA DIR/SP/G            HT/PER HT/PER
                 (UTC) (F)     (DEG/KT/KT) (MB)    (FT/S) (FT/S)
CHESAPEAKE LIGHT 2000   36     200/  8/  9 1023.8
64 E VA BEACH    2000   39 49  280/  4/  6 1022.9    4/ 9   3/ 9
DUCK             1900   37 43  220/  4/  6 1023.0
2 E DUCK         1900      42                N/A     4/11   2/11
10 NE DUCK       NOT AVBL
OREGON INLET     1900   39 42  180/  2/  5 1023.8
13E OREGON INLT  1900      43                N/A     5/11   2/11
HATTERAS CG      1900   38 44  300/  4/  5 1024.6
DIAMOND BUOY     2000   41 71  300/  4/  8 1024.1    4/ 9   5/ 9
17 S OCRACOKE    NOT AVBL
CAPE LOOKOUT     2000   42     240/  4/  5 1024.4
BEAUFORT LAB     1900   42 46  200/  6/  7 1023.5
27 SE WRIGHTSVLE NOT AVBL
5 SE WRIGHTSVLE  NOT AVBL
225 S CAPE HAT   1857   57 72  340/  8/ 10 1024.1    6/ 8   5/ 8
41 SE CHARLESTON 2000   56 68  210/  8/ 10 1024.2    3/10   3/10

$$


USA.gov is the U.S. government's official web portal to all federal, state and local government web resources and services.